Location: Peterborough
(44.3048°N, 78.3199°W)
Time: 03:41:13
(UTC-04:00)

ISS - Pass Details

Date: 13 May 2025
Orbit: 415 x 418 km, 51.6° (Epoch: 20 June)

Event Time Altitude Azimuth Distance (km) Brightness Sun altitude
Rises 00:42:57 0° 299° (WNW) 2,359 0.5 -27.0°
Reaches altitude 10° 00:45:16 10° 312° (NW) 1,494 -0.4 -27.0°
Enters shadow 00:47:12 23° 343° (NNW) 945 -1.3 -27.0°
